EWG8765 EDDL-EDDV

Flight info

Callsign EWG8765
Flight time 0h 37m
Altitude 23000
Route NUDGO6T NUDGO Z858 ESADU P12 WRB WRB3E
Aircraft B38M/M-SDFGHIRWXYZ/LB1

Departure

Time 2026-05-01 12:29
Airport Düsseldorf Airport (EDDL)

Arrival

Time 2026-05-01 13:07
Airport Hannover Airport (EDDV)
Time Latitude Longitude Altitude Speed Heading
2026-05-01 11:45 51.28059 6.76712 124 ft 0 kts 275°
2026-05-01 12:12 51.28058 6.76731 124 ft 4 kts 277°
2026-05-01 12:12 51.28052 6.76769 124 ft 4 kts 314°
2026-05-01 12:12 51.28042 6.76779 125 ft 10 kts
2026-05-01 12:13 51.28063 6.76787 125 ft 4 kts 18°
2026-05-01 12:13 51.28089 6.76803 128 ft 4 kts 21°
2026-05-01 12:13 51.28114 6.76817 128 ft 4 kts 18°
2026-05-01 12:13 51.28133 6.76825 127 ft 0 kts 14°
2026-05-01 12:22 51.28140 6.76827 128 ft 2 kts 11°
2026-05-01 12:22 51.28164 6.76833 130 ft 5 kts
2026-05-01 12:23 51.28205 6.76842 130 ft 7 kts
2026-05-01 12:23 51.28260 6.76854 130 ft 9 kts
2026-05-01 12:23 51.28326 6.76864 129 ft 11 kts
2026-05-01 12:23 51.28399 6.76832 126 ft 12 kts 323°
2026-05-01 12:24 51.28464 6.76777 125 ft 9 kts
2026-05-01 12:24 51.28492 6.76791 123 ft 3 kts 33°
2026-05-01 12:24 51.28508 6.76815 128 ft 4 kts 43°
2026-05-01 12:24 51.28524 6.76846 125 ft 4 kts 51°
2026-05-01 12:25 51.28545 6.76887 125 ft 7 kts 52°
2026-05-01 12:25 51.28689 6.77193 129 ft 27 kts 52°
2026-05-01 12:25 51.28819 6.77466 128 ft 34 kts 52°
2026-05-01 12:26 51.28968 6.77779 126 ft 36 kts 52°
2026-05-01 12:26 51.29221 6.78314 141 ft 21 kts 54°
2026-05-01 12:26 51.29297 6.78473 148 ft 16 kts 51°
2026-05-01 12:27 51.29370 6.78564 153 ft 12 kts 17°
2026-05-01 12:27 51.29532 6.78550 153 ft 11 kts 332°
2026-05-01 12:28 51.29505 6.78446 151 ft 7 kts 224°
2026-05-01 12:28 51.29471 6.78378 149 ft 9 kts 234°
2026-05-01 12:28 51.29204 6.77816 134 ft 92 kts 233°
2026-05-01 12:29 51.28715 6.76718 225 ft 142 kts 231°
2026-05-01 12:29 51.28228 6.75275 689 ft 156 kts 236°
2026-05-01 12:29 51.27175 6.71927 1803 ft 173 kts 238°
2026-05-01 12:30 51.26255 6.68153 2469 ft 195 kts 248°
2026-05-01 12:30 51.25726 6.66048 2423 ft 214 kts 234°
2026-05-01 12:30 51.24714 6.64473 2867 ft 196 kts 201°
2026-05-01 12:31 51.23541 6.63781 3712 ft 167 kts 193°
2026-05-01 12:31 51.22356 6.63322 3681 ft 191 kts 184°
2026-05-01 12:31 51.21022 6.63456 4115 ft 186 kts 172°
2026-05-01 12:31 51.19771 6.63781 4526 ft 189 kts 172°
2026-05-01 12:32 51.18405 6.64013 4581 ft 203 kts 174°
2026-05-01 12:32 51.15410 6.64610 4628 ft 238 kts 157°
2026-05-01 12:32 51.14012 6.66164 5145 ft 254 kts 133°
2026-05-01 12:33 51.13179 6.68682 5840 ft 265 kts 106°
2026-05-01 12:33 51.13092 6.71666 6610 ft 273 kts 92°
2026-05-01 12:33 51.13218 6.74707 7349 ft 277 kts 89°
2026-05-01 12:33 51.13368 6.77775 8087 ft 279 kts 90°
2026-05-01 12:34 51.13486 6.80839 8805 ft 282 kts 90°
2026-05-01 12:34 51.13594 6.83974 9545 ft 284 kts 90°
2026-05-01 12:34 51.13708 6.87130 10271 ft 287 kts 90°
2026-05-01 12:34 51.13828 6.90329 10845 ft 294 kts 89°
2026-05-01 12:35 51.13949 6.93648 11232 ft 307 kts 89°
2026-05-01 12:35 51.14074 6.97119 11567 ft 321 kts 90°
2026-05-01 12:35 51.14203 7.00714 12049 ft 329 kts 89°
2026-05-01 12:35 51.14336 7.04390 12620 ft 335 kts 89°
2026-05-01 12:36 51.14469 7.08107 13240 ft 338 kts 89°
2026-05-01 12:36 51.14599 7.11864 13861 ft 342 kts 89°
2026-05-01 12:36 51.14728 7.15610 14483 ft 344 kts 89°
2026-05-01 12:36 51.14860 7.19422 15072 ft 346 kts 89°
2026-05-01 12:37 51.14991 7.23265 15622 ft 349 kts 88°
2026-05-01 12:37 51.15122 7.27141 16171 ft 352 kts 89°
2026-05-01 12:37 51.15251 7.31046 16734 ft 354 kts 90°
2026-05-01 12:37 51.15381 7.34980 17253 ft 357 kts 88°
2026-05-01 12:38 51.15511 7.38945 17775 ft 360 kts 88°
2026-05-01 12:38 51.15651 7.42939 18317 ft 363 kts 87°
2026-05-01 12:38 51.16239 7.46874 18788 ft 369 kts 72°
2026-05-01 12:38 51.17174 7.50706 19225 ft 372 kts 72°
2026-05-01 12:39 51.18131 7.54496 19674 ft 375 kts 71°
2026-05-01 12:39 51.19094 7.58365 20111 ft 377 kts 70°
2026-05-01 12:39 51.20046 7.62267 20568 ft 379 kts 70°
2026-05-01 12:39 51.21002 7.66191 21010 ft 381 kts 70°
2026-05-01 12:40 51.21969 7.70129 21477 ft 382 kts 70°
2026-05-01 12:40 51.22940 7.74089 21906 ft 384 kts 70°
2026-05-01 12:40 51.23910 7.78079 22333 ft 387 kts 70°
2026-05-01 12:40 51.24880 7.82081 22816 ft 387 kts 70°
2026-05-01 12:41 51.25839 7.86033 23266 ft 388 kts 69°
2026-05-01 12:41 51.26815 7.90056 23313 ft 388 kts 69°
2026-05-01 12:41 51.27786 7.94074 23307 ft 388 kts 69°
2026-05-01 12:41 51.28756 7.98096 23321 ft 387 kts 70°
2026-05-01 12:42 51.29720 8.02099 23316 ft 387 kts 70°
2026-05-01 12:42 51.30687 8.06120 23323 ft 387 kts 70°
2026-05-01 12:42 51.31650 8.10135 23323 ft 387 kts 70°
2026-05-01 12:42 51.32613 8.14156 23322 ft 388 kts 70°
2026-05-01 12:43 51.33574 8.18175 23319 ft 385 kts 70°
2026-05-01 12:43 51.34516 8.22128 23320 ft 387 kts 69°
2026-05-01 12:43 51.35565 8.26101 23334 ft 387 kts 64°
2026-05-01 12:43 51.36797 8.29919 23338 ft 387 kts 63°
2026-05-01 12:44 51.38046 8.33741 23337 ft 387 kts 64°
2026-05-01 12:44 51.39276 8.37559 23336 ft 386 kts 64°
2026-05-01 12:44 51.41223 8.45521 23344 ft 384 kts 83°
2026-05-01 12:45 51.41271 8.54103 23352 ft 386 kts 91°
2026-05-01 12:45 51.41203 8.58331 23357 ft 384 kts 91°
2026-05-01 12:45 51.41152 8.62620 23344 ft 386 kts 91°
2026-05-01 12:46 51.41111 8.66921 23357 ft 386 kts 91°
2026-05-01 12:46 51.41061 8.71205 23347 ft 384 kts 91°
2026-05-01 12:46 51.41130 8.75482 23363 ft 386 kts 79°
2026-05-01 12:46 51.41913 8.79593 23357 ft 386 kts 69°
2026-05-01 12:47 51.43018 8.83505 23353 ft 386 kts 64°
2026-05-01 12:47 51.44219 8.87360 23355 ft 386 kts 65°
2026-05-01 12:47 51.45311 8.91279 23363 ft 385 kts 69°
2026-05-01 12:47 51.46305 8.95219 23365 ft 386 kts 69°
2026-05-01 12:48 51.47342 8.99179 23354 ft 385 kts 67°
2026-05-01 12:48 51.48429 9.03115 23353 ft 384 kts 67°
2026-05-01 12:48 51.49486 9.06981 23311 ft 373 kts 67°
2026-05-01 12:48 51.50818 9.10518 22833 ft 373 kts 46°
2026-05-01 12:49 51.52961 9.12841 22347 ft 376 kts 21°
2026-05-01 12:49 51.55529 9.13607 21874 ft 378 kts
2026-05-01 12:49 51.58157 9.13579 21365 ft 378 kts 359°
2026-05-01 12:49 51.60781 9.13435 20874 ft 376 kts
2026-05-01 12:50 51.63383 9.13598 20385 ft 373 kts
2026-05-01 12:50 51.65906 9.14221 19896 ft 371 kts 12°
2026-05-01 12:50 51.68438 9.14988 19403 ft 371 kts 12°
2026-05-01 12:50 51.70999 9.15581 18917 ft 371 kts
2026-05-01 12:51 51.73562 9.16041 18404 ft 371 kts
2026-05-01 12:51 51.76116 9.16559 17902 ft 369 kts 10°
2026-05-01 12:51 51.81167 9.17717 16931 ft 365 kts
2026-05-01 12:52 51.83676 9.18250 16451 ft 363 kts 10°
2026-05-01 12:52 51.88663 9.19327 15498 ft 360 kts 10°
2026-05-01 12:52 51.91112 9.19868 15029 ft 359 kts 10°
2026-05-01 12:53 51.96052 9.20946 14073 ft 358 kts 10°
2026-05-01 12:53 51.98515 9.21484 13577 ft 356 kts 10°
2026-05-01 12:53 52.00964 9.22022 13107 ft 354 kts 10°
2026-05-01 12:54 52.03394 9.22556 12660 ft 352 kts 10°
2026-05-01 12:54 52.08222 9.23617 11733 ft 349 kts 10°
2026-05-01 12:54 52.10626 9.24147 11269 ft 348 kts 10°
2026-05-01 12:55 52.15403 9.25200 10445 ft 344 kts 10°
2026-05-01 12:55 52.17734 9.25714 10338 ft 332 kts 10°
2026-05-01 12:55 52.19946 9.26201 10275 ft 320 kts 10°
2026-05-01 12:56 52.22136 9.26688 9992 ft 318 kts 10°
2026-05-01 12:56 52.24250 9.27156 9514 ft 296 kts 10°
2026-05-01 12:56 52.26254 9.27596 9034 ft 290 kts 10°
2026-05-01 12:56 52.28264 9.28036 8565 ft 287 kts 10°
2026-05-01 12:57 52.30224 9.28455 8127 ft 286 kts 10°
2026-05-01 12:57 52.34178 9.29304 7321 ft 292 kts 10°
2026-05-01 12:57 52.36206 9.29704 6935 ft 296 kts
2026-05-01 12:58 52.38173 9.28925 6569 ft 300 kts 329°
2026-05-01 12:58 52.39959 9.27167 6179 ft 300 kts 336°
2026-05-01 12:58 52.41912 9.25935 5771 ft 302 kts 342°
2026-05-01 12:59 52.45801 9.26975 5019 ft 291 kts 45°
2026-05-01 12:59 52.46856 9.29680 4625 ft 277 kts 79°
2026-05-01 12:59 52.46500 9.35352 3789 ft 250 kts 103°
2026-05-01 13:00 52.46135 9.40811 3022 ft 232 kts 93°
2026-05-01 13:00 52.46108 9.43320 2966 ft 208 kts 94°
2026-05-01 13:01 52.46015 9.47578 2589 ft 179 kts 95°
2026-05-01 13:01 52.45959 9.49571 2383 ft 174 kts 94°
2026-05-01 13:01 52.45869 9.53042 1906 ft 137 kts 95°
2026-05-01 13:02 52.45828 9.54612 1757 ft 140 kts 95°
2026-05-01 13:07 52.45654 9.70527 180 ft 8 kts 271°
2026-05-01 13:07 52.45655 9.70414 181 ft 11 kts 271°
2026-05-01 13:07 52.45657 9.70268 183 ft 14 kts 271°
2026-05-01 13:08 52.45660 9.70082 183 ft 18 kts 274°
2026-05-01 13:08 52.45668 9.69854 183 ft 22 kts 271°
2026-05-01 13:08 52.45679 9.69590 181 ft 24 kts 275°
2026-05-01 13:08 52.45694 9.69477 181 ft 0 kts 301°
2026-05-01 13:09 52.45695 9.69475 181 ft 1 kts 309°
2026-05-01 13:09 52.45703 9.69465 172 ft 2 kts 319°
2026-05-01 13:09 52.45723 9.69448 181 ft 4 kts 343°
2026-05-01 13:09 52.45756 9.69441 180 ft 3 kts 17°
2026-05-01 13:10 52.45762 9.69449 181 ft 0 kts 41°
2026-05-01 13:10 52.45773 9.69468 180 ft 6 kts 47°
2026-05-01 13:10 52.45799 9.69524 180 ft 7 kts 55°
2026-05-01 13:10 52.45808 9.69543 180 ft 1 kts 53°
2026-05-01 13:11 52.45809 9.69545 180 ft 0 kts 53°
2026-05-01 13:11 52.45809 9.69546 180 ft 0 kts 52°